Home   Weather   Joensuu   Past weeks

Flag for Finland Past Weather in Joensuu, Finland — Yesterday and Last 2 Weeks

Now
55 °F

Passing clouds.


Feels Like: 54 °F
Forecast: 50 / 61 °F
Wind: 6 mph from Northeast

Location: Joensuu Airport

Current Time: Jul 22, 2017 at 8:09:19 am

Latest Report: Jul 22, 2017 at 7:20 am


Visibility: N/A

Pressure: 30.09 "Hg

Humidity: 88%

Dew Point: 52 °F

Location of JoensuuLocation

Past Weather in Joensuu — Graph

°F

Joensuu Temperature Yesterday

Maximum temperature yesterday: 64 °F (at 3:20 pm)
Minimum temperature yesterday: 48 °F (at 2:50 am)
Average temperature yesterday: 58 °F

High & Low Weather Summary for the Past Weeks

 TemperatureHumidityPressure
High75 °F (Jul 10, 4:20 pm)100% (Jul 8, 1:20 am)30.09 "Hg (Jul 8, 1:20 am)
Low39 °F (Jul 8, 2:20 am)31% (Jul 16, 7:50 pm)29.47 "Hg (Jul 12, 6:50 pm)
Average59 °F76%29.81 "Hg
* Reported Jul 7 6:20 am — Jul 22 6:50 am, Joensuu. Weather by CustomWeather, © 2017

Note: Actual official high and low records may vary slightly from our data, if they occured in-between our weather recording intervals... More about our weather records

Advertising

Joensuu Weather History for the Previous 24 Hours

Scroll right to see more
 ConditionsComfort  
Time TempWeatherWind HumidityBarometerVisibility
6:50 am
Sat, Jul 22
55 °FPassing clouds.5 mph82%30.09 "HgN/A
6:20 am55 °FSunny.3 mph82%30.07 "Hg10 mi
5:50 am54 °FSunny.3 mph88%30.07 "Hg10 mi
5:20 am54 °FSunny.3 mph88%30.07 "Hg10 mi
4:50 am54 °FSunny.3 mph88%30.07 "Hg10 mi
4:20 am54 °FSunny.3 mph88%30.07 "Hg10 mi
3:50 am54 °FPassing clouds.5 mph88%30.07 "HgN/A
3:20 am55 °FOvercast.5 mph82%30.07 "HgN/A
2:50 am55 °FPassing clouds.3 mph82%30.07 "HgN/A
1:50 am55 °FClear.2 mph77%30.04 "Hg10 mi
1:20 am55 °FClear.6 mph82%30.04 "Hg10 mi
12:50 am55 °FClear.No wind88%30.04 "Hg10 mi
12:20 am55 °FPassing clouds.No wind94%30.04 "HgN/A
11:50 pm
Fri, Jul 21
57 °FPassing clouds.1 mph82%30.04 "HgN/A
11:20 pm57 °FOvercast.2 mph88%30.04 "HgN/A
10:50 pm57 °FOvercast.5 mph88%30.04 "HgN/A
10:20 pm59 °FMostly cloudy.6 mph77%30.01 "HgN/A
9:50 pm59 °FPartly sunny.6 mph82%30.01 "HgN/A
9:20 pm59 °FSunny.3 mph82%30.01 "Hg10 mi
8:50 pm59 °FSunny.5 mph82%30.01 "Hg10 mi
8:20 pm61 °FPartly sunny.2 mph72%30.01 "HgN/A
7:50 pm63 °FSprinkles. Partly sunny.3 mph64%30.01 "HgN/A
7:20 pm63 °FBroken clouds.5 mph64%30.01 "HgN/A
6:50 pm63 °FPartly sunny.5 mph64%29.98 "HgN/A
6:20 pm64 °FPartly sunny.6 mph60%29.98 "HgN/A
5:20 pm63 °FPassing clouds.8 mph64%29.98 "HgN/A
4:50 pm63 °FPassing clouds.7 mph68%29.98 "HgN/A
4:20 pm64 °FPassing clouds.9 mph64%29.98 "HgN/A
3:50 pm64 °FPassing clouds.7 mph64%29.98 "HgN/A
3:20 pm64 °FPassing clouds.9 mph64%29.98 "HgN/A
2:50 pm63 °FPassing clouds.8 mph64%29.98 "HgN/A
1:50 pm63 °FPassing clouds.7 mph64%29.98 "HgN/A
1:20 pm61 °FPassing clouds.7 mph68%29.98 "HgN/A
12:50 pm61 °FScattered clouds.9 mph72%29.98 "HgN/A
12:20 pm61 °FScattered clouds.9 mph77%29.98 "HgN/A
11:50 am61 °FScattered clouds.8 mph77%29.98 "HgN/A
11:20 am61 °FScattered clouds.8 mph83%29.98 "HgN/A
10:50 am59 °FScattered clouds.7 mph77%29.98 "HgN/A
10:20 am59 °FScattered clouds.7 mph82%29.95 "HgN/A
9:50 am61 °FPassing clouds.5 mph72%29.95 "HgN/A
9:20 am61 °FPassing clouds.5 mph72%29.95 "HgN/A
8:50 am59 °FPassing clouds.5 mph77%29.95 "HgN/A
8:20 am59 °FPassing clouds.6 mph82%29.95 "HgN/A
Weather by CustomWeather, © 2017

See weather overviewHow to use our weather pages